This demonstration page uses our WeatherBlox Daily Observations layout. Learn more.

Left ArrowRight Arrow

41.86663, -103.66717

Hourly Observations for July 27, 2017

Temp ( °F °C ) Dew Point ( °F °C ) Humidity (%) Winds ( mph kmh ) Pressure ( in mb ) Visibility ( mi km ) Precip ( " mm )
12:53 am 00:53 Cloudy 68 20 61 16.1 78 78 E 6 9 30.06 1018 10 16 0.00 0.00
1:53 am 01:53 Mostly Cloudy 67 19.4 62 16.7 84 84 Calm 30.06 1018 10 16 0.00 0.00
2:53 am 02:53 Mostly Cloudy 68 20 63 17.2 84 84 E 7 11 30.05 1018 10 16 0.00 0.00
3:53 am 03:53 Cloudy 69 20.6 64 17.8 84 84 ESE 6 9 30.04 1017 10 16 0.00 0.00
4:33 am 04:33 Cloudy with Heavy Rain 67 19.4 64 17.8 91 91 ENE 6 9 29.97 1015 2 3 0.10 2.54
4:41 am 04:41 Cloudy with Light Rain 67 19.4 65 18.3 93 93 NE 6 9 29.97 1015 3 5 0.17 4.32
4:53 am 04:53 Cloudy with Light Rain 68 20 65 18.3 90 90 E 9 15 30.04 1017 8 13 0.19 4.83
5:53 am 05:53 Cloudy 67 19.4 64 17.8 91 91 ESE 9 15 30.04 1017 8 13 0.00 0.03
6:53 am 06:53 Partly Cloudy with Mist and Fog 67 19.4 65 18.3 93 93 ESE 13 20 30.05 1018 5 8 0.00 0.00
7:36 am 07:36 Mostly Cloudy with Mist and Fog 70 21 66 19 88 88 ESE 14 22 30.00 1016 5 8 0.00 0.00
7:53 am 07:53 Partly Cloudy with Mist and Fog 70 21.1 66 18.9 87 87 SE 16 26 30.06 1018 6 10 0.00 0.00
8:34 am 08:34 Cloudy 72 22 66 19 83 83 ESE 15 24 29.97 1015 8 13 0.00 0.00
8:53 am 08:53 Cloudy 71 21.7 65 18.3 81 81 ESE 13 20 30.07 1018 8 13 0.00 0.00
9:53 am 09:53 Cloudy 74 23.3 65 18.3 74 74 SE 12 19 30.06 1018 10 16 0.00 0.00
10:21 am 10:21 Cloudy 75 23.9 64 17.8 69 69 ESE 14 22 29.91 1013 10 16 0.00 0.00
10:53 am 10:53 Cloudy 75 23.9 64 17.8 69 69 ESE 15 24 30.06 1018 10 16 0.00 0.00
11:53 am 11:53 Mostly Cloudy with Light Rain 78 25.6 65 18.3 64 64 ESE 20 31 30.03 1017 10 16 0.00 0.03
12:53 pm 12:53 Sunny with Light Rain 83 28.3 64 17.8 53 53 SE 18 30 29.98 1015 10 16 0.00 0.03
1:53 pm 13:53 Sunny 84 28.9 66 18.9 55 55 ESE 16 26 29.96 1015 10 16 0.00 0.03
2:53 pm 14:53 Sunny 86 30 66 18.9 51 51 E 22 35 29.92 1013 10 16 0.00 0.00
3:53 pm 15:53 Sunny 86 30 66 18.9 51 51 E 21 33 29.87 1012 10 16 0.00 0.00
4:53 pm 16:53 Sunny 90 32.2 59 15 35 35 SSE 15 24 29.84 1011 10 16 0.00 0.00
5:36 pm 17:36 Mostly Cloudy with Thunderstorms 88 31 59 15 38 38 SSE 16 26 29.65 1004 10 16 0.00 0.00
5:53 pm 17:53 Mostly Cloudy with Nearby Thunderstorms 78 25.6 64 17.8 62 62 S 18 30 29.86 1011 8 13 0.00 0.03
6:01 pm 18:01 Mostly Cloudy with Strong Thunderstorms 76 24.4 65 18.3 69 69 SW 14 22 29.80 1009 4 6 0.01 0.25
6:09 pm 18:09 Mostly Cloudy with Thunderstorms 73 22.8 67 19.4 81 81 S 14 22 29.80 1009 2 3 0.09 2.29
6:18 pm 18:18 Windy with Storms Likely 75 24 66 19 74 74 SW 20 31 29.80 1009 10 16 0.00 0.00
6:45 pm 18:45 Partly Cloudy with Nearby Thunderstorms 76 24.4 60 15.6 58 58 SE 14 22 29.74 1007 10 16 0.09 2.29
6:53 pm 18:53 Partly Cloudy with Nearby Thunderstorms 76 24.4 62 16.7 62 62 E 13 20 29.89 1012 10 16 0.09 2.29
7:19 pm 19:19 Sunny 76 24.4 66 18.9 72 72 ESE 12 19 29.80 1009 10 16 0.00 0.00
7:53 pm 19:53 Sunny 73 22.8 65 18.3 76 76 E 18 30 29.90 1012 10 16 0.00 0.00
8:53 pm 20:53 Clear 70 21.1 63 17.2 79 79 ESE 17 28 29.92 1013 10 16 0.00 0.00
9:53 pm 21:53 Mostly Clear 67 19.4 62 16.7 84 84 SE 14 22 29.93 1014 10 16 0.00 0.00
10:53 pm 22:53 Mostly Clear 66 18.9 62 16.7 87 87 SE 13 20 29.91 1013 10 16 0.00 0.00
11:10 pm 23:10 Clear with Nearby Thunderstorms 66 19 61 16 83 83 ENE 8 13 29.85 1011 10 16 0.00 0.00
11:17 pm 23:17 Mostly Clear with Thunderstorms 66 18.9 62 16.7 87 87 NW 22 35 29.97 1015 10 16 0.00 0.00
11:24 pm 23:24 Mostly Cloudy with Strong Thunderstorms 65 18.3 62 16.7 90 90 N 32 52 29.97 1015 2 2 0.04 1.02
11:28 pm 23:28 Mostly Cloudy with Strong Thunderstorms 63 17 61 16 94 94 NE 22 35 29.94 1014 1 1 0.00 0.00
11:35 pm 23:35 Mostly Cloudy with Thunderstorms 64 17.8 61 16.1 90 90 N 17 28 29.94 1014 3 4 0.34 8.64
11:42 pm 23:42 Cloudy with Thunderstorms 66 19 63 17 88 88 NE 15 24 29.91 1013 10 16 0.00 0.00
11:53 pm 23:53 Cloudy with Nearby Thunderstorms 64 17.8 62 16.7 93 93 NE 10 17 29.97 1015 10 16 0.34 8.64

Powered by AerisWeather